Theta_e
337 338 342 349 351 352 352 352 352 353 353 353 354 354 353 353 353 352 351 350 349 349 349 349 348 348 349 348 348 347 346 348 348 348 348 348 348 348 348 348 347 347 348 348 351 351 351 351 351 350 348 344 342 341 341 340 340 341 341 341 342 342 343 343 344 347 349 349 348 349 348 347 348 349 350 351 349 349 347 347 347 345 344 347 350
337 339 343 347 350 352 352 352 352 353 353 353 353 354 353 353 352 352 351 350 349 349 349 348 347 347 348 348 347 346 347 347 347 348 348 348 347 347 347 347 347 347 347 351 351 349 349 350 349 349 348 346 344 343 341 340 339 339 339 339 340 340 340 340 342 343 344 346 349 350 349 347 348 349 350 349 350 349 347 347 346 342 341 348 349
339 339 342 346 349 351 352 352 352 353 353 353 353 353 353 353 352 352 352 350 349 349 348 348 347 347 347 347 347 346 347 347 347 347 347 347 347 347 347 347 347 346 350 349 350 348 348 348 349 348 346 344 343 342 341 339 338 337 337 337 337 338 339 340 340 341 342 341 343 345 349 348 347 348 349 349 349 348 347 348 347 347 343 347 348
339 339 343 346 348 349 352 352 352 353 353 353 353 353 353 352 352 351 350 350 349 349 348 347 347 346 347 346 346 346 346 347 347 347 347 347 347 347 347 347 347 349 349 348 349 348 348 348 347 345 343 342 341 340 340 338 337 337 336 335 335 335 336 337 338 340 339 341 341 343 343 339 343 346 347 348 349 348 346 346 347 347 347 346 347
338 340 342 345 347 347 350 351 352 352 353 353 353 353 352 352 351 351 350 349 349 349 348 346 347 347 348 346 345 346 345 345 346 346 346 347 346 347 347 347 347 348 348 348 347 348 348 347 345 344 342 341 340 339 338 337 336 334 333 333 332 333 333 333 334 335 336 338 338 338 335 337 339 347 346 346 347 347 347 346 344 345 345 346 346
338 339 342 345 346 346 348 352 352 353 353 353 352 352 351 351 351 350 350 349 349 348 347 347 347 348 348 348 346 345 346 346 346 346 346 346 346 346 347 347 347 348 347 348 347 347 346 345 344 342 341 339 338 337 336 335 334 332 331 329 329 329 330 330 332 334 337 334 337 331 336 336 338 343 347 346 345 345 345 346 345 345 345 345 346
338 339 342 344 345 345 346 351 353 353 353 353 352 352 352 351 350 350 350 350 349 348 347 347 348 348 348 348 349 348 347 347 347 347 346 346 345 346 347 346 347 347 347 347 347 346 345 343 342 340 339 338 336 334 333 333 331 330 327 326 324 325 328 330 333 335 334 330 329 333 336 338 338 340 347 347 347 346 345 345 345 345 345 345 344
338 339 341 343 344 345 346 350 352 353 353 352 352 352 351 351 350 350 349 348 348 348 347 348 348 348 348 348 348 348 348 347 347 346 346 345 345 346 346 346 347 347 347 346 345 344 343 341 340 339 339 337 334 333 332 330 328 325 324 322 323 324 328 331 333 333 333 326 326 332 337 337 338 340 347 347 346 347 346 346 345 343 343 344 344
337 339 341 342 343 343 345 348 352 353 352 352 352 351 351 350 350 349 349 348 348 348 348 348 348 348 348 349 349 348 348 348 347 346 345 345 345 346 346 346 346 346 346 345 344 343 341 340 339 338 337 335 332 331 329 328 326 323 322 322 323 327 330 331 332 330 327 325 326 331 337 337 337 338 346 346 346 346 347 346 346 342 342 343 345
337 338 340 341 342 342 345 348 351 352 352 352 352 351 350 350 349 348 348 348 348 348 348 348 348 348 348 348 348 349 348 347 348 346 345 345 345 345 346 346 346 345 345 344 343 342 340 339 337 336 336 333 330 329 327 326 325 323 322 322 327 328 330 331 329 329 323 326 330 332 336 342 336 338 343 346 345 345 345 343 342 341 343 345 344
336 338 339 340 340 341 347 350 350 351 352 351 351 351 350 349 349 348 347 348 348 348 347 348 348 348 349 348 349 348 348 348 347 346 345 344 345 346 346 345 345 344 343 342 340 339 337 336 336 334 335 331 328 326 325 324 323 322 322 326 327 329 331 329 325 320 323 325 325 326 332 337 331 336 345 345 346 345 344 344 344 343 341 341 342
336 336 338 339 339 340 346 348 350 351 351 351 351 350 350 349 348 347 348 348 348 348 347 348 348 348 348 348 348 349 348 347 347 346 345 345 345 346 345 345 344 343 342 340 340 338 336 334 334 333 333 330 326 325 324 324 323 321 324 326 327 328 329 327 318 317 319 321 324 324 325 327 327 338 344 344 344 344 344 343 344 343 343 343 343
335 335 337 338 339 339 344 347 348 350 351 351 351 350 350 349 348 348 348 348 348 348 348 348 348 349 348 348 348 349 347 347 347 345 345 345 345 345 344 344 343 341 340 338 337 337 335 334 334 333 332 329 325 324 324 323 321 321 323 325 326 326 326 324 316 318 318 319 321 321 323 324 326 342 341 342 342 342 343 343 344 343 344 344 343
333 334 336 337 339 338 340 343 347 349 350 349 350 350 350 350 349 348 348 348 348 348 348 348 349 349 348 348 348 348 347 347 346 345 345 345 345 344 344 343 342 341 339 337 336 336 336 335 334 333 331 327 325 324 322 322 321 321 323 324 325 326 324 321 321 317 318 318 321 321 320 325 329 339 340 339 340 339 340 341 342 343 342 342 342
332 332 334 337 337 339 337 340 343 345 347 348 349 350 350 349 349 348 348 348 348 348 348 348 349 348 349 349 349 348 348 347 346 346 345 344 344 344 343 342 341 340 339 338 336 335 336 334 333 333 330 326 324 322 322 321 320 320 322 323 324 325 320 312 315 314 317 319 318 320 320 322 337 337 336 337 337 337 338 338 339 340 340 340 340
330 332 333 336 336 338 339 338 337 339 343 345 346 347 348 349 348 348 348 348 348 347 348 348 349 349 349 349 348 348 347 346 346 345 345 344 344 343 342 341 340 339 338 337 337 334 334 333 332 331 327 326 323 322 320 319 318 319 320 321 323 323 320 315 311 312 314 316 316 318 319 323 336 334 334 334 334 334 334 335 336 337 337 337 337
328 329 333 334 334 336 339 339 339 335 336 339 341 343 345 346 347 347 347 347 347 348 348 348 348 348 348 349 348 346 345 345 345 345 344 343 343 342 341 340 340 339 338 336 334 332 332 334 333 329 327 325 323 322 320 318 317 318 319 320 322 321 319 315 313 311 313 316 316 317 319 323 334 333 333 332 331 331 331 332 333 334 335 335 335
324 329 332 332 333 335 337 339 340 338 341 336 336 339 342 344 344 344 345 345 346 346 347 346 347 347 346 345 342 342 343 344 344 344 343 342 342 341 340 340 339 338 337 336 332 331 332 333 331 329 327 325 323 321 319 316 315 317 318 319 320 319 317 315 310 311 314 317 313 317 319 331 333 333 332 331 330 330 330 330 331 331 332 333 333
323 326 327 331 333 333 336 337 337 339 340 340 340 339 336 340 342 342 342 343 343 344 345 343 343 343 341 339 337 337 338 339 341 341 340 338 337 338 339 339 338 336 336 333 332 331 331 332 330 328 326 324 322 319 317 315 314 316 316 317 318 315 313 310 307 309 310 312 312 315 319 332 331 332 332 331 331 330 330 330 330 330 330 330 331
320 323 325 327 330 333 333 335 337 338 339 341 341 340 335 334 337 339 339 340 341 342 341 339 338 335 335 334 332 334 331 334 330 335 335 336 333 331 335 337 337 336 335 332 332 331 331 331 329 328 326 324 322 318 315 313 313 315 314 315 314 309 301 302 304 306 307 311 312 313 326 329 330 330 330 330 328 327 328 327 327 328 329 329 328
322 320 321 324 327 331 332 333 335 336 338 340 341 341 339 332 333 333 335 336 337 338 338 333 331 330 330 329 327 335 335 335 334 336 328 332 326 324 333 336 338 337 335 334 331 331 330 330 328 327 325 323 319 316 314 312 313 314 313 313 309 298 300 302 305 306 305 306 309 312 327 327 328 329 329 328 327 326 326 327 326 327 328 327 327
321 321 319 322 326 329 331 333 333 335 337 339 340 340 340 335 339 338 335 335 332 331 334 336 330 334 327 331 332 332 334 335 335 330 330 328 325 322 326 332 335 331 333 333 331 330 330 329 328 327 325 321 316 300 302 311 314 313 313 312 297 296 297 301 302 302 304 304 307 317 325 326 326 327 326 326 326 325 324 325 326 326 326 326 325
318 319 322 323 325 328 329 331 332 334 335 337 338 338 339 338 340 340 337 331 332 330 334 332 333 333 331 331 330 332 333 334 333 330 328 323 324 321 324 328 332 329 331 331 332 331 330 329 328 326 323 317 303 297 296 294 296 308 304 297 294 295 297 299 300 300 301 305 303 322 325 325 326 326 326 326 325 326 326 325 325 324 323 322 323
318 320 323 324 324 326 328 331 331 332 333 336 337 337 338 338 338 339 338 336 335 333 333 333 332 332 330 329 330 331 332 332 326 321 321 324 322 319 322 325 326 324 325 326 329 331 330 329 327 324 317 305 296 296 295 293 292 292 294 296 295 294 295 297 299 299 298 306 304 320 323 325 325 325 325 324 324 323 324 325 326 325 324 324 324
316 316 316 321 324 326 326 328 329 330 331 333 333 335 336 337 337 337 336 336 335 334 336 336 335 333 332 332 331 329 328 329 327 324 324 322 321 322 323 324 320 315 319 317 319 320 321 317 315 311 302 299 296 294 294 292 293 293 294 296 295 294 295 296 298 296 297 300 305 318 321 324 325 325 325 324 323 322 323 324 324 325 324 324 324
310 313 316 319 322 326 327 326 327 328 330 332 332 332 332 335 336 336 335 335 334 334 335 336 335 334 333 332 330 329 327 326 324 323 322 321 320 320 320 318 314 316 314 315 313 314 313 311 309 306 301 298 296 295 294 293 292 293 294 295 294 294 293 294 296 296 297 298 303 316 319 322 324 325 324 324 322 320 322 324 325 325 323 323 323
302 310 312 316 319 322 325 325 326 327 328 330 330 329 330 333 335 335 335 334 334 334 334 336 335 334 332 331 330 328 326 324 323 322 321 320 320 320 319 316 316 314 312 314 312 311 310 309 308 306 301 298 297 296 295 295 293 293 294 294 294 293 293 294 295 296 296 298 304 315 317 319 322 324 325 326 324 321 324 324 325 325 324 322 324
299 300 303 312 315 319 321 323 325 325 326 327 328 328 327 328 330 331 334 333 332 333 334 335 335 333 331 330 328 329 326 324 323 321 320 319 319 319 318 315 315 313 311 313 312 308 308 307 307 305 302 297 296 295 295 295 293 293 294 293 293 293 293 293 294 295 296 296 298 307 316 318 320 323 324 325 326 324 325 325 324 324 323 323 323
298 299 300 303 312 317 319 323 324 324 324 326 327 327 326 326 326 329 330 327 332 333 333 333 333 332 330 329 327 327 325 324 322 321 319 319 318 317 315 314 313 313 311 310 312 309 307 306 306 306 304 302 295 294 294 294 293 293 294 293 293 292 292 292 293 295 296 296 296 301 314 317 320 322 323 324 326 325 325 325 324 324 324 324 323
298 298 299 300 301 311 320 323 324 325 324 324 326 324 325 325 325 327 328 326 329 330 328 331 332 331 330 329 327 327 325 323 322 319 318 317 315 314 313 312 312 311 311 311 308 309 307 303 303 305 304 300 295 294 294 294 293 293 293 294 293 294 292 293 293 295 294 295 297 298 310 315 319 322 322 322 324 325 325 325 324 323 323 323 322
298 298 299 300 302 306 314 318 320 319 320 323 322 324 323 323 323 324 325 326 326 326 326 327 328 329 330 328 327 327 325 322 321 319 317 316 314 313 312 310 310 310 311 311 308 309 305 306 305 304 304 300 296 293 293 294 293 293 293 293 293 292 292 292 294 294 295 295 295 297 300 311 316 319 323 322 322 324 324 324 323 324 324 324 324
297 298 299 300 303 306 307 315 318 318 318 320 319 322 322 322 319 321 323 324 323 323 324 324 324 326 324 324 324 325 325 322 321 319 318 316 314 313 311 311 311 309 310 310 307 307 306 304 301 301 300 298 295 292 292 293 292 294 292 292 292 292 292 292 293 294 295 295 295 296 297 301 309 314 317 321 324 322 322 323 323 323 323 326 325
297 298 299 300 301 305 310 312 315 317 318 319 319 320 318 317 320 320 320 320 322 321 321 322 324 324 323 323 323 322 321 322 320 319 316 315 313 313 311 311 311 310 310 308 307 303 302 299 298 297 296 294 293 292 292 291 292 292 291 292 291 291 291 291 293 294 295 295 296 295 295 297 297 305 310 314 319 323 323 321 323 322 324 326 326
297 298 299 300 301 303 307 310 311 313 313 315 316 316 316 314 315 316 317 318 319 320 320 321 322 322 321 321 322 321 319 319 318 316 316 314 313 313 312 310 309 309 309 307 306 304 301 299 297 295 296 294 293 291 291 291 291 291 291 290 290 292 292 292 292 294 294 296 297 294 294 295 295 295 297 306 311 317 321 322 323 323 324 325 326
297 297 298 298 300 301 303 307 309 311 311 312 312 312 312 313 313 314 316 317 318 318 318 319 319 320 320 320 320 320 319 318 317 317 314 313 312 311 310 311 308 308 308 305 306 302 301 299 295 296 292 292 291 291 290 291 291 292 292 291 292 290 290 293 292 292 292 295 296 296 295 294 294 294 296 293 301 309 315 319 321 322 322 324 327
295 296 297 299 299 300 301 302 305 309 310 311 312 312 313 312 312 312 314 314 315 315 316 317 317 315 317 318 318 318 318 316 315 315 315 313 312 312 311 308 307 307 306 303 303 301 299 298 295 296 293 291 290 290 289 289 289 291 290 291 291 291 290 290 292 292 292 293 297 296 296 295 293 293 298 294 295 298 311 313 316 318 318 320 322
295 296 296 297 298 299 300 300 302 304 308 310 311 311 312 313 313 313 314 314 314 315 315 314 315 315 314 315 315 316 316 315 315 314 315 313 312 311 309 308 306 307 305 302 302 300 298 298 294 294 295 293 290 289 289 289 289 290 289 289 289 291 291 292 292 292 291 292 292 293 294 292 292 300 293 292 293 293 304 310 312 313 314 315 319
294 295 296 296 297 298 299 299 300 303 305 307 308 308 309 310 311 311 312 313 312 313 313 314 314 313 314 313 313 313 314 314 314 314 314 313 311 311 308 307 307 306 304 301 301 297 297 297 295 292 293 292 290 290 290 288 289 290 288 288 288 289 290 290 291 293 290 290 290 291 293 291 293 293 292 292 292 292 293 299 306 307 308 311 316
294 294 295 296 297 297 298 298 299 300 303 305 305 307 307 308 309 309 309 310 310 310 310 311 311 312 312 312 313 313 312 313 313 313 313 312 311 310 309 307 307 306 304 301 298 295 294 295 296 292 290 290 291 290 290 289 289 289 288 287 287 288 289 289 290 290 289 291 291 291 289 290 290 290 291 291 291 291 292 291 291 291 294 309 312
293 293 294 294 295 296 297 297 298 299 301 303 304 304 305 304 305 306 306 305 307 306 307 308 309 310 310 311 312 312 313 312 311 311 311 310 309 308 309 306 306 305 304 301 299 297 297 295 294 293 290 290 288 288 288 289 287 286 287 288 286 286 288 289 289 289 290 289 290 290 289 289 288 288 289 290 291 290 290 290 292 292 293 300 307
292 292 292 293 293 294 295 295 296 297 298 299 301 301 301 302 302 302 300 301 302 304 304 305 306 306 307 308 308 309 310 310 309 310 310 308 307 306 306 305 304 304 304 304 302 300 298 297 295 293 292 289 288 287 288 289 288 287 286 284 285 285 287 289 288 289 289 288 288 289 288 288 287 287 289 288 288 288 288 289 291 291 292 290 293
291 291 291 291 292 293 293 294 295 296 296 297 298 299 299 297 298 297 298 300 300 301 301 301 301 302 302 303 304 305 306 305 305 307 307 307 306 304 304 304 303 303 302 301 300 298 296 296 294 293 293 292 290 288 290 290 287 285 285 285 284 285 286 287 287 288 288 288 289 289 289 289 288 288 287 287 287 287 288 289 289 292 291 291 289
290 290 291 291 291 292 292 293 293 294 295 296 296 296 297 298 298 297 298 297 297 297 297 297 299 300 300 300 300 301 301 302 302 302 303 304 304 304 302 302 301 301 301 300 299 298 297 296 294 296 293 292 291 290 290 290 287 283 282 283 281 283 285 286 287 287 287 288 287 288 288 288 288 288 288 287 288 288 288 288 289 290 290 291 289
289 290 290 290 291 291 291 291 292 293 293 294 295 295 296 296 296 296 296 296 295 296 297 298 298 300 300 300 299 299 299 299 298 299 299 298 299 301 301 300 299 299 300 300 298 298 297 296 294 294 295 292 290 290 292 291 286 287 283 285 280 281 279 283 286 285 286 288 288 287 286 288 288 287 286 288 288 288 288 288 288 289 290 291 290
288 288 289 289 290 290 290 291 291 291 292 293 294 294 295 295 295 296 296 295 295 294 294 294 294 294 296 296 296 297 298 297 297 297 297 297 296 296 297 297 298 298 299 298 298 298 298 297 296 294 293 294 292 291 291 292 290 290 287 280 280 281 280 279 281 282 283 285 286 286 287 287 287 287 286 287 287 287 288 287 287 288 289 290 289
287 287 288 289 289 289 290 290 290 291 291 291 292 293 293 292 292 292 291 291 290 290 290 290 291 291 291 292 293 294 294 296 296 296 295 295 296 295 293 295 295 295 297 298 297 297 296 295 295 295 294 293 294 292 290 292 292 290 288 285 284 282 281 279 283 281 281 283 285 285 286 286 286 286 286 286 286 287 287 288 287 288 289 289 289
286 287 288 288 288 288 289 289 289 289 290 290 291 291 291 291 290 290 289 289 288 289 289 290 290 291 291 291 291 292 292 292 293 293 294 294 294 294 294 293 292 292 292 294 295 296 296 296 296 295 294 294 292 291 290 291 291 291 290 289 286 284 281 282 281 280 280 280 283 285 285 284 285 285 286 286 286 286 286 287 288 288 288 289 289
285 286 286 287 287 287 288 288 288 288 289 290 290 290 289 289 289 289 289 288 288 287 288 289 290 290 290 290 290 290 291 291 291 291 291 292 292 293 293 293 292 292 290 291 292 293 295 295 295 295 294 293 293 291 291 291 290 291 292 291 289 286 282 283 281 283 282 281 281 282 282 284 283 285 286 286 286 286 286 287 287 287 287 288 288
285 285 285 286 286 287 287 287 287 287 287 288 288 289 289 289 288 288 287 288 288 287 288 289 288 289 288 288 289 289 289 290 290 290 290 290 290 291 292 292 292 291 290 291 289 290 290 291 292 293 293 293 292 292 291 291 290 290 290 289 289 289 287 286 283 282 282 280 281 280 282 282 283 284 285 286 286 286 287 287 287 288 288 288 288
285 285 285 285 285 286 286 286 286 286 286 286 286 287 287 288 287 287 286 286 287 287 287 287 287 287 287 287 287 287 288 288 288 288 289 289 289 290 291 291 291 291 290 290 289 290 290 289 289 290 291 291 292 292 291 291 291 291 291 291 289 287 285 285 285 285 283 282 284 282 280 282 282 284 286 286 286 286 286 286 286 287 288 288 288
284 284 284 284 284 284 285 285 285 286 286 285 285 285 285 285 285 285 285 285 285 285 285 285 285 285 285 285 286 286 287 286 287 287 287 288 288 289 289 290 290 290 290 290 290 290 290 289 289 287 287 288 289 291 291 291 290 290 289 289 289 289 288 286 285 285 286 285 283 283 281 282 283 283 283 286 287 285 285 285 286 287 288 288 288
Wind_Speed
6 10 9 14 15 15 16 17 18 17 15 15 14 13 13 13 13 14 13 12 11 11 10 10 10 10 10 10 11 11 11 11 11 10 10 9 9 8 7 8 8 7 8 8 10 9 11 12 13 13 12 11 11 11 11 11 11 10 10 10 10 11 11 11 11 11 11 10 10 10 9 9 10 11 11 12 12 12 11 10 7 5 4 7 10
11 10 10 10 17 16 17 17 17 18 17 16 15 15 14 13 13 12 13 12 12 11 10 9 9 9 10 10 10 11 11 10 10 10 9 9 8 7 7 6 6 6 7 10 10 10 10 12 13 12 12 11 10 10 10 10 10 10 10 10 10 10 10 10 9 9 9 9 8 8 7 10 10 11 12 12 12 12 11 10 10 4 3 9 10
9 9 9 11 16 16 17 18 18 17 18 17 16 16 15 13 13 12 10 11 11 11 10 9 9 9 9 10 10 10 10 10 10 9 9 9 7 7 7 6 5 6 9 9 11 11 11 12 13 12 11 10 10 10 10 10 10 10 10 10 10 10 10 9 9 8 8 7 7 7 7 8 10 11 11 12 12 13 11 10 9 8 6 10 8
11 9 9 11 15 16 17 17 18 18 16 16 14 15 15 15 14 13 11 12 11 10 10 10 10 10 10 9 10 10 10 9 9 9 8 7 7 6 6 5 5 8 7 8 11 11 12 13 13 12 10 9 9 9 9 9 9 9 9 9 10 10 10 10 9 8 8 7 5 5 3 4 5 10 11 11 12 12 11 10 10 11 10 9 9
9 9 9 9 11 13 15 16 17 17 16 15 15 15 16 15 15 14 13 13 11 10 10 10 10 10 10 10 9 9 9 9 8 8 7 6 6 5 5 5 6 7 8 9 11 11 11 12 12 11 10 9 9 8 9 8 8 8 8 8 9 9 10 10 9 8 8 6 4 3 1 2 3 8 10 11 11 10 9 11 11 10 10 9 9
8 8 8 9 9 10 15 15 16 17 16 16 17 16 16 15 15 14 14 13 13 12 11 10 11 10 10 10 10 9 9 9 8 7 6 6 5 5 5 5 6 8 9 10 10 11 11 11 11 10 9 9 8 8 8 8 8 7 7 7 7 8 9 9 9 9 8 6 3 2 2 2 2 3 10 10 10 9 9 10 11 10 10 9 9
11 8 9 9 8 10 14 15 15 15 15 15 17 18 17 16 15 14 13 14 13 13 13 12 12 11 11 10 10 10 10 10 9 9 8 6 5 4 5 6 7 8 9 10 9 10 10 10 9 8 8 8 7 7 7 7 7 7 6 6 6 7 7 8 8 8 7 4 3 3 3 2 2 2 7 7 9 9 9 9 9 10 10 9 9
7 8 9 9 8 11 15 15 15 15 14 14 15 15 16 17 15 15 14 13 13 14 14 13 13 13 11 11 11 11 10 10 9 9 8 8 6 5 5 6 7 9 8 9 10 10 9 8 8 7 7 7 7 6 7 6 6 6 5 5 5 6 6 7 8 7 6 3 3 3 3 2 3 2 5 6 6 8 9 9 9 9 10 10 6
8 8 9 9 8 14 14 15 15 15 17 14 13 13 16 16 15 14 15 14 14 14 14 14 14 13 13 12 11 11 11 10 10 9 8 7 7 6 7 6 7 9 9 9 9 9 8 7 7 6 6 6 6 6 6 6 5 5 5 5 5 5 6 7 8 7 4 3 3 3 3 3 2 1 4 6 7 8 9 7 7 8 9 7 6
7 8 8 8 8 14 15 15 16 16 18 16 14 13 15 13 14 16 15 14 14 14 14 14 14 13 12 12 12 12 11 11 11 10 9 8 7 7 8 8 9 9 9 8 7 6 5 6 5 4 6 5 5 6 6 5 5 5 5 5 6 7 7 8 8 6 3 4 4 3 3 3 1 2 5 8 8 9 7 5 5 4 2 3 6
8 8 8 8 9 15 16 16 16 15 17 16 15 15 16 15 13 15 14 15 15 15 14 14 15 14 13 12 12 12 12 12 11 11 10 9 9 8 7 9 10 8 7 6 4 5 3 3 4 3 4 5 4 4 4 4 4 5 6 6 7 8 8 8 7 4 4 4 5 4 4 4 1 3 8 9 9 8 6 3 1 4 6 7 7
8 7 8 8 11 16 16 16 16 15 16 15 16 15 16 16 15 15 15 15 15 14 14 15 14 13 12 12 12 11 11 11 11 12 11 9 10 10 9 8 8 6 4 4 4 3 4 1 3 3 5 5 4 3 3 4 4 5 6 7 8 9 9 9 5 5 4 4 4 3 3 3 1 3 9 9 9 8 6 4 3 3 6 7 9
8 8 8 7 9 14 16 16 16 15 15 15 15 16 17 17 16 16 15 15 15 14 14 13 11 11 11 12 12 12 11 12 13 13 12 11 10 12 11 9 8 6 5 4 3 1 1 5 5 4 6 4 4 3 3 3 4 5 6 7 8 8 8 9 5 5 4 4 4 4 3 3 2 4 6 8 7 8 8 7 6 3 4 9 9
8 8 8 8 8 14 17 16 16 16 16 16 15 15 16 16 16 16 16 15 15 14 14 13 10 10 11 11 11 11 11 12 14 14 14 13 12 11 12 11 9 7 7 7 6 6 6 7 6 7 6 5 4 3 3 3 4 5 7 8 8 8 7 6 6 4 4 4 4 4 4 4 4 2 7 6 6 5 6 7 8 8 7 7 7
9 8 8 7 8 10 16 16 16 16 15 16 16 15 16 15 16 15 16 15 15 13 14 13 11 12 10 9 9 11 12 12 13 14 14 13 12 11 11 10 9 7 6 6 6 4 7 6 5 7 6 4 4 3 3 3 4 5 7 8 8 8 8 4 4 4 4 4 3 4 5 4 8 4 5 6 5 4 5 6 7 7 8 8 7
6 8 7 7 7 8 10 13 15 15 15 16 16 16 16 15 15 15 15 14 15 15 13 12 11 11 11 10 10 10 12 14 14 14 13 12 12 11 10 10 9 7 6 5 7 6 6 5 3 8 6 4 3 3 3 4 4 6 7 7 7 8 8 5 5 4 4 4 3 3 4 4 8 2 6 5 5 3 3 3 4 4 4 5 6
4 5 7 7 6 7 9 9 12 15 15 15 15 16 16 16 16 15 15 14 14 13 13 12 12 11 10 10 9 11 10 12 13 12 12 10 10 10 9 9 9 10 7 6 7 4 2 10 12 8 5 4 3 3 3 4 5 6 6 6 7 7 7 5 5 4 5 3 3 4 4 4 5 4 6 5 4 4 3 2 2 2 3 4 4
3 4 6 6 6 7 8 8 10 10 10 12 15 16 16 15 16 15 15 15 14 14 13 13 12 12 11 10 9 10 11 11 13 12 12 10 8 8 8 8 8 7 8 8 5 5 6 11 10 8 5 4 3 2 3 4 5 6 6 6 7 8 7 6 4 4 4 4 4 3 4 4 6 7 5 3 4 4 3 2 2 2 1 1 2
2 3 3 6 6 6 7 7 8 9 10 9 8 12 16 15 15 15 15 15 15 14 14 12 11 10 10 9 9 11 11 12 13 13 12 11 9 9 8 8 8 8 7 6 6 6 7 11 9 8 6 5 4 3 3 4 5 6 6 6 7 7 7 5 4 4 3 4 3 4 3 3 5 6 5 5 4 4 4 3 2 2 1 1 0
1 2 3 4 5 6 6 7 8 9 9 8 9 9 13 15 15 15 15 14 14 14 14 13 12 11 10 9 9 10 10 10 12 11 12 13 12 9 9 6 8 9 6 9 10 8 10 11 9 9 7 6 4 3 3 3 5 6 6 6 6 7 5 4 3 4 4 3 3 3 5 4 4 4 4 4 3 2 3 2 1 1 1 1 0
2 3 4 4 4 6 6 6 6 8 8 8 7 9 10 13 12 14 15 14 13 13 13 13 12 10 9 9 9 8 7 6 9 7 11 9 11 11 10 8 7 7 9 9 10 10 10 11 10 9 8 7 5 4 2 4 5 6 6 5 6 5 4 4 3 3 2 2 2 4 4 3 4 4 4 4 3 3 2 1 1 1 2 1 1
5 5 4 4 5 5 7 8 6 8 7 7 6 6 6 10 9 8 8 10 11 11 10 7 8 5 9 7 5 6 6 6 7 8 7 8 10 13 10 9 8 5 8 11 11 10 11 11 10 10 9 8 6 2 1 1 4 5 4 4 4 3 3 4 3 3 2 1 2 3 3 2 2 4 4 4 3 3 2 2 2 2 2 1 1
6 6 7 6 7 6 6 8 9 8 8 7 6 5 6 6 8 8 7 8 7 8 6 6 5 5 4 5 4 5 5 6 6 7 6 8 8 12 12 10 8 7 8 11 10 10 13 12 11 10 11 8 4 3 1 1 1 3 4 3 3 3 4 4 3 3 2 0 2 4 3 2 1 3 5 4 4 4 4 3 3 2 2 2 2
8 8 9 5 6 7 9 8 9 8 8 8 6 6 6 6 6 6 6 6 6 6 5 5 5 5 5 5 4 5 5 5 6 10 9 7 7 10 12 11 9 8 9 8 10 9 10 11 10 10 7 4 3 3 1 1 2 2 1 1 2 2 3 3 4 3 1 1 1 4 3 2 1 1 4 4 4 4 3 4 4 4 4 3 3
8 5 4 7 9 9 7 7 6 6 7 7 7 7 6 5 5 5 6 6 5 5 6 6 6 6 6 5 5 5 5 5 5 5 6 6 5 5 5 5 5 4 6 5 5 5 5 6 5 6 4 4 3 2 1 1 1 1 0 0 1 2 3 3 3 3 2 1 0 2 3 3 2 1 2 4 3 3 3 4 4 4 4 2 3
5 4 8 7 9 9 8 7 7 7 8 8 8 6 5 6 6 6 5 5 6 5 5 5 5 6 5 5 5 5 5 5 5 6 6 6 6 6 6 5 5 6 4 6 4 4 5 6 6 5 4 3 3 2 1 1 2 1 1 1 0 2 2 2 2 2 1 0 0 2 3 3 3 2 3 3 3 3 4 4 5 5 4 4 4
3 3 5 6 7 5 7 6 8 7 8 7 6 6 7 7 6 6 6 5 5 6 5 5 5 5 5 5 5 5 5 5 6 6 6 6 6 6 6 6 6 6 4 6 5 5 6 6 6 6 5 4 2 1 1 1 1 2 2 1 1 2 2 2 2 2 0 0 2 3 3 3 3 3 3 5 5 4 5 5 7 7 6 5 7
6 7 6 5 3 4 4 4 6 7 7 6 6 7 6 6 7 6 7 7 6 6 5 5 5 5 5 5 5 5 6 5 5 6 6 5 6 6 6 6 5 6 5 6 6 4 5 5 5 5 5 4 4 3 2 2 3 3 3 3 2 2 2 3 2 1 0 0 1 3 4 3 3 4 4 5 6 6 7 7 7 6 5 7 6
11 11 9 7 5 4 4 6 5 6 5 6 7 6 6 6 6 7 7 6 6 6 6 5 5 5 5 6 6 6 5 6 6 5 4 6 4 5 5 5 5 5 5 5 6 6 5 5 5 5 6 5 3 3 3 4 3 3 5 4 3 3 3 3 3 2 1 0 0 2 4 4 3 3 4 5 6 7 7 7 7 6 7 8 6
8 7 9 8 7 5 5 7 7 7 5 6 6 5 6 7 7 7 7 6 6 6 5 6 6 6 5 6 7 6 6 6 6 5 6 5 4 4 4 5 5 5 5 6 4 5 5 4 4 5 5 4 4 3 2 4 4 4 4 4 4 4 4 4 4 4 3 1 0 0 3 3 5 4 4 4 6 7 8 7 7 7 7 7 7
8 10 10 10 9 6 2 3 4 3 4 6 5 5 4 6 6 5 5 6 6 6 6 6 6 6 7 7 6 6 6 5 6 6 5 6 5 5 5 4 5 5 4 5 4 5 5 6 6 5 6 5 4 3 3 4 5 4 4 4 5 3 3 2 3 3 3 3 2 1 0 3 3 4 6 4 5 7 7 8 7 7 8 8 9
10 10 8 8 9 9 6 2 1 2 4 4 3 5 6 5 4 4 5 5 5 6 6 6 6 6 6 7 7 7 6 6 7 6 6 6 6 6 5 6 6 5 5 5 5 4 5 4 4 4 4 4 4 3 3 4 4 4 3 4 3 4 3 3 3 3 3 3 2 1 0 0 3 4 4 6 4 3 6 6 7 2 4 5 7
6 6 8 8 12 10 8 6 2 0 0 1 1 2 2 3 5 4 4 4 5 5 6 6 6 6 6 7 7 7 6 7 7 7 7 6 6 7 6 6 6 5 5 4 5 3 3 3 2 2 3 3 3 4 2 3 4 4 3 4 4 4 3 3 4 4 4 4 3 2 1 0 1 3 4 6 6 7 6 3 3 2 5 6 8
7 7 10 13 10 8 7 7 7 5 3 3 3 2 1 1 1 3 3 5 5 6 6 5 6 6 6 7 7 7 7 6 7 6 6 6 6 7 7 6 6 5 5 5 6 5 5 4 3 3 2 3 4 3 3 4 4 2 4 4 4 4 5 4 5 5 4 4 5 3 2 1 0 1 1 4 5 6 6 6 5 6 6 7 10
8 10 11 9 10 10 9 8 9 8 7 6 5 3 2 3 1 1 3 4 5 5 4 4 6 6 6 6 6 7 7 7 7 8 7 6 6 6 6 7 6 5 6 5 6 5 5 6 5 5 2 2 3 3 4 5 4 5 5 4 5 4 3 5 4 4 5 5 5 4 3 3 1 1 1 1 3 4 5 6 6 6 7 7 11
9 7 8 9 12 11 11 10 11 10 9 8 7 7 6 5 5 5 5 4 3 2 1 2 3 3 5 4 5 5 6 6 6 7 7 7 7 8 7 6 6 6 6 5 5 6 6 5 5 6 5 4 3 4 2 4 4 5 4 5 6 4 5 4 5 5 5 5 6 5 5 4 3 2 1 1 1 2 4 4 5 5 5 7 7
8 9 9 9 11 11 12 12 12 10 10 10 10 8 9 8 7 7 7 7 6 6 6 5 5 3 1 2 4 5 5 4 5 6 6 7 7 7 6 7 6 7 6 6 6 6 7 6 5 6 6 7 6 5 4 4 4 5 4 4 4 4 5 6 6 6 3 4 4 4 4 4 4 4 3 2 1 1 2 3 3 4 5 4 6
8 9 8 9 9 9 9 10 10 9 8 8 8 8 7 8 8 7 8 9 8 7 7 7 7 5 6 6 5 3 1 3 5 5 5 5 4 5 5 6 6 6 6 6 6 4 4 6 6 4 5 5 6 6 6 4 3 4 4 4 4 3 5 5 5 4 5 4 5 5 6 5 4 5 5 4 3 2 0 1 2 3 3 4 4
9 10 10 10 10 10 10 12 12 11 9 9 8 8 8 8 7 8 9 8 8 8 7 8 6 7 7 6 6 6 5 6 4 1 3 5 5 4 5 5 6 6 6 6 5 4 4 4 6 5 3 4 5 6 6 5 3 2 3 3 3 4 5 4 3 3 4 5 6 5 3 6 5 4 5 4 4 3 3 1 0 0 0 3 3
9 10 12 12 12 11 10 11 11 10 9 9 9 8 8 8 9 8 10 8 7 8 8 7 7 8 8 8 8 7 6 6 6 5 6 5 3 0 3 6 5 5 6 6 5 6 9 7 6 7 5 2 1 3 3 5 2 1 2 3 3 3 4 4 4 5 4 4 4 2 5 4 4 4 4 4 5 4 4 3 3 2 1 1 1
11 11 12 12 12 10 12 13 9 11 10 9 8 8 8 7 8 8 6 6 6 6 8 7 8 8 9 10 9 8 8 8 8 6 5 4 4 4 4 3 1 3 6 8 8 8 6 5 4 3 6 4 2 3 3 4 5 0 2 3 5 3 3 3 5 6 5 3 3 5 5 3 3 4 5 4 4 4 4 4 4 4 3 3 2
11 11 12 11 10 11 12 10 10 10 10 8 7 8 6 3 3 3 3 6 7 8 7 6 6 7 8 9 9 9 9 8 8 7 7 6 6 5 5 4 4 4 4 2 1 1 2 3 4 3 2 6 6 5 5 6 0 5 3 3 4 5 4 4 5 6 5 4 5 5 5 5 5 5 3 3 4 4 4 5 4 4 4 4 3
9 10 9 11 12 11 10 9 10 10 10 9 9 7 6 8 8 7 7 4 4 4 3 3 4 7 7 7 7 8 8 9 9 8 7 7 7 6 5 4 3 4 3 3 2 1 2 4 5 5 4 1 1 2 6 8 6 2 2 1 4 2 4 4 6 7 4 5 5 6 6 5 6 5 4 4 5 5 4 4 5 4 4 4 4
10 11 11 11 10 10 10 10 10 10 10 10 8 6 6 6 7 7 8 9 5 7 9 10 10 10 9 8 8 7 7 7 7 7 7 7 7 6 5 4 3 1 1 2 1 2 1 2 3 5 3 3 3 5 6 7 4 7 3 7 3 2 6 7 9 5 6 7 6 7 4 6 5 4 3 6 6 6 6 4 5 5 5 5 5
10 10 10 9 8 10 9 9 9 9 9 10 10 8 10 10 8 10 10 11 11 11 10 11 10 9 10 10 10 9 8 7 7 7 6 6 5 5 5 4 3 2 1 1 2 3 2 2 2 3 3 6 5 4 4 6 7 7 6 3 1 2 6 5 2 6 3 4 7 6 5 5 6 6 5 7 5 6 5 5 5 5 5 5 5
10 8 8 9 9 9 10 9 9 10 10 10 10 10 10 10 11 11 10 8 9 9 9 8 9 9 7 7 11 11 11 10 9 9 8 7 7 5 4 5 4 4 2 2 2 2 3 3 5 5 5 5 6 4 4 4 9 9 5 3 3 3 1 2 1 7 2 4 4 4 7 7 5 6 6 6 6 7 5 6 5 7 5 5 5
9 6 7 9 10 9 9 9 9 9 9 11 11 10 11 10 10 9 7 6 6 5 4 5 6 7 8 9 8 10 10 11 10 10 10 10 9 7 6 5 4 5 3 3 3 3 3 3 2 3 5 5 3 6 6 6 4 7 7 8 5 2 2 1 5 1 6 2 4 7 7 4 5 5 7 8 7 6 6 6 7 7 6 5 6
5 6 8 9 10 10 10 10 9 10 9 9 12 10 10 9 9 9 8 8 6 5 6 6 6 7 10 9 8 8 9 10 10 10 10 10 9 9 8 6 6 5 4 4 3 4 4 3 2 2 3 3 4 6 6 5 6 4 7 12 11 5 3 1 3 3 4 6 6 3 3 6 4 6 8 9 9 9 9 8 8 6 6 7 6
7 8 8 8 7 8 9 9 11 10 9 10 11 11 10 10 9 7 9 6 6 6 5 7 8 8 10 10 10 9 9 10 10 10 10 10 9 8 8 8 7 6 4 5 4 4 4 4 6 4 4 4 4 5 5 6 5 7 5 7 7 11 8 6 3 2 5 4 7 4 5 2 3 7 9 9 7 9 10 9 8 8 7 7 7
6 7 7 7 8 7 9 10 11 9 8 9 10 11 10 9 11 10 10 8 7 6 7 9 8 8 9 9 8 9 8 9 9 9 11 10 9 9 9 9 8 7 7 6 5 6 5 5 4 4 4 4 4 4 6 6 6 6 6 6 5 4 5 7 6 6 5 6 12 7 5 6 7 8 9 9 12 10 7 6 7 8 8 8 7
6 7 8 8 7 8 7 10 8 8 8 9 10 11 10 10 10 10 10 9 7 8 10 10 8 9 9 9 8 8 8 8 8 8 9 10 10 9 8 8 8 8 8 8 7 6 6 5 5 4 4 5 5 5 5 5 6 6 7 6 8 8 9 8 7 7 8 9 7 8 6 7 9 8 6 8 9 7 7 7 8 9 10 9 7
Wind_Direction
207 177 180 180 176 180 172 172 167 164 165 165 162 159 157 158 154 150 149 150 147 146 141 137 134 135 134 134 136 133 133 129 128 125 120 113 106 109 101 99 97 100 102 105 91 93 101 96 91 84 75 70 70 69 68 65 62 58 55 55 55 54 52 48 47 45 43 68 92 90 89 92 91 89 90 88 84 80 76 71 59 44 48 70 73
174 180 177 182 176 176 174 173 170 166 165 166 164 161 160 159 156 154 153 152 150 148 147 142 141 141 142 140 140 138 136 133 132 128 127 120 114 110 105 101 100 97 94 92 105 97 88 87 85 80 74 68 65 65 63 60 57 52 46 41 44 50 48 45 40 43 45 40 41 57 72 87 89 92 94 92 88 83 78 75 73 58 50 74 71
144 166 175 181 177 176 174 172 172 170 168 167 165 162 160 157 157 157 157 153 153 153 150 145 144 146 147 147 145 144 140 139 133 133 132 130 121 117 113 103 106 100 97 109 106 104 96 90 83 80 75 71 67 63 61 58 54 48 42 33 30 33 39 39 35 30 27 27 32 37 45 76 89 92 95 94 92 88 83 75 73 69 71 72 71
148 166 171 177 179 178 177 172 172 171 169 168 163 161 159 158 159 158 158 158 159 156 154 153 152 156 152 153 151 148 146 142 139 134 132 131 125 110 107 107 106 94 108 113 110 107 99 92 86 83 78 73 71 66 62 58 54 49 41 32 24 23 26 29 28 21 17 6 14 26 53 60 76 95 94 94 94 91 88 83 79 78 73 68 67
152 159 170 173 177 181 182 174 172 171 168 167 163 162 161 161 160 160 163 163 163 161 156 159 161 160 155 155 156 152 151 149 145 143 141 138 133 121 108 105 111 116 119 117 112 107 102 94 89 83 78 74 68 69 66 61 54 46 40 33 25 20 23 22 20 14 7 3 353 69 48 58 83 98 98 97 96 93 94 92 85 80 75 73 73
153 158 167 172 175 180 183 181 174 172 169 166 167 164 165 164 164 165 168 165 166 163 164 168 167 164 159 158 158 157 156 153 149 149 148 151 146 134 121 125 133 132 126 123 115 107 100 96 93 90 83 73 67 64 62 58 55 50 40 32 27 18 25 24 16 10 7 13 44 96 54 29 30 82 104 103 100 95 96 96 94 87 81 77 72
155 159 164 172 175 179 181 184 178 175 173 168 169 168 166 167 169 168 171 167 168 168 168 174 169 167 165 162 160 162 161 162 161 157 156 157 159 147 133 137 141 138 127 126 121 109 102 95 97 96 83 73 63 58 56 56 52 46 41 34 26 25 26 30 22 21 26 33 54 92 76 51 53 57 95 92 100 101 98 100 97 91 89 84 79
146 160 168 169 174 181 179 183 180 175 176 175 171 169 168 169 169 173 172 170 173 171 172 178 172 171 170 168 168 167 168 167 168 163 162 159 163 149 139 141 142 132 132 124 113 105 102 98 96 91 77 66 57 52 53 51 45 43 41 37 34 32 32 38 44 45 44 42 50 76 88 74 73 64 115 113 110 107 101 95 100 95 93 92 72
159 165 166 170 174 178 181 182 180 176 177 177 175 174 175 172 170 175 175 173 176 175 176 179 177 177 173 174 173 174 174 173 168 167 166 162 161 158 142 140 137 135 139 126 115 106 100 99 91 91 83 67 55 47 41 39 43 47 47 50 51 43 44 56 59 59 46 47 60 83 95 98 93 81 113 123 107 97 82 72 86 96 97 93 93
164 164 169 168 176 179 181 183 181 177 179 175 175 177 180 176 174 177 180 179 181 178 179 182 181 181 178 179 180 178 178 175 169 166 166 164 160 157 148 145 140 148 137 131 119 107 97 90 87 72 85 67 56 45 37 33 42 47 56 65 59 54 58 59 60 58 64 61 68 68 82 94 93 115 125 112 108 81 65 71 89 94 117 123 100
163 169 169 173 176 179 181 184 183 180 181 175 176 176 180 179 179 183 184 185 185 181 184 185 187 185 182 184 187 185 180 176 172 166 163 165 158 149 149 146 151 150 143 139 137 129 129 111 85 94 88 75 59 47 40 38 41 50 65 65 58 57 57 58 58 53 56 61 63 45 37 46 103 119 106 107 102 92 69 56 72 112 118 115 106
170 171 173 176 178 179 183 183 183 183 183 179 178 177 179 180 182 185 187 190 189 188 187 190 190 191 189 189 194 186 183 180 171 165 166 161 160 145 141 152 138 140 122 143 149 144 133 129 118 91 95 91 73 56 54 58 51 60 63 58 56 52 48 55 56 54 52 54 56 49 40 22 346 121 103 101 100 107 104 97 85 128 133 116 113
175 173 176 175 178 183 184 184 183 185 184 182 182 181 181 180 182 186 186 189 190 193 191 194 197 195 194 197 199 189 186 181 175 167 165 164 162 152 151 153 143 138 119 84 68 157 220 134 124 115 103 95 79 68 67 63 67 72 64 55 52 53 51 57 57 56 48 41 41 28 20 356 343 138 110 95 96 90 80 77 88 100 132 131 121
173 178 176 177 181 185 184 184 184 185 185 183 183 184 184 181 184 185 186 188 190 190 195 197 198 200 201 204 208 180 182 184 183 171 167 163 163 157 154 159 161 156 145 119 113 112 116 130 136 121 114 106 92 87 76 69 75 73 65 55 49 56 60 62 68 65 55 38 30 19 12 350 340 163 119 108 97 93 83 77 71 80 88 91 98
169 178 179 177 180 185 188 185 185 186 186 184 184 185 188 185 185 185 188 189 191 191 194 195 196 201 203 211 209 185 184 184 192 177 174 165 162 157 162 165 169 163 156 162 154 177 151 144 141 130 117 114 111 104 89 80 80 79 65 60 57 60 65 62 58 63 62 50 26 18 9 351 339 172 126 122 106 95 87 84 76 74 76 79 82
169 173 174 181 180 182 189 190 187 187 187 186 184 186 189 186 188 185 189 191 192 193 195 195 197 199 203 205 209 185 193 188 192 186 175 167 168 159 159 161 167 166 182 199 216 190 158 200 164 114 117 123 120 108 93 83 80 82 74 65 68 70 72 81 71 57 58 53 34 25 1 351 354 125 146 133 107 96 84 102 84 67 64 69 75
159 163 170 183 182 184 189 191 191 189 189 188 187 187 190 188 188 187 190 191 193 193 194 196 197 198 203 206 199 180 191 191 198 186 177 168 167 158 160 166 168 171 195 226 237 184 196 103 111 119 126 125 122 107 89 80 80 83 72 65 66 68 73 83 86 83 69 53 45 19 358 343 18 85 112 111 120 104 122 120 104 96 79 76 66
158 166 174 177 184 188 190 192 192 193 192 192 191 190 191 190 189 189 190 190 193 193 194 196 198 199 200 200 196 181 184 185 190 185 170 167 161 154 159 170 182 219 203 224 219 202 132 120 117 126 131 139 131 107 86 82 84 77 62 57 52 57 66 75 81 72 73 67 41 17 5 354 60 61 76 120 120 126 100 91 90 86 86 95 94
159 182 167 168 186 185 191 192 194 195 196 193 193 195 193 193 191 192 192 191 192 192 193 194 198 200 197 195 190 178 182 182 176 177 167 162 160 164 167 176 192 206 219 153 164 189 148 125 128 129 145 146 140 115 97 91 94 77 63 54 50 54 64 69 67 66 62 51 27 18 347 33 83 90 94 91 92 99 102 102 85 77 83 91 286
183 190 177 191 175 181 189 194 197 198 198 197 197 195 199 195 194 193 195 194 194 193 191 191 194 198 197 192 184 179 181 182 180 180 171 164 164 164 171 182 197 208 160 154 159 171 137 135 137 140 149 153 148 127 116 121 111 88 70 53 53 67 69 66 69 57 53 43 27 1 357 48 99 105 102 105 102 91 82 97 92 68 69 72 32
260 228 197 195 187 183 189 192 202 202 201 200 201 200 201 200 199 197 197 196 194 195 193 188 187 193 193 191 181 179 178 179 182 180 171 167 165 165 173 184 197 197 155 159 170 164 159 141 144 150 154 156 132 126 141 144 124 97 75 59 65 72 91 89 78 72 53 29 17 344 18 30 112 119 117 110 103 99 99 99 144 146 101 65 60
235 242 232 209 189 198 191 192 194 203 200 202 202 203 201 199 201 201 201 200 197 194 193 188 187 188 192 187 180 181 175 176 181 174 174 173 168 168 174 182 186 155 162 158 168 172 150 146 154 153 160 133 120 103 19 40 113 88 73 68 68 89 104 106 101 90 66 19 6 350 50 57 130 144 132 125 121 115 123 127 127 177 151 122 108
255 240 245 215 205 196 194 195 197 192 194 199 201 201 201 199 205 199 199 199 198 194 192 187 184 188 189 185 179 179 179 177 176 172 172 173 174 174 173 182 170 161 165 161 170 176 157 155 162 176 137 130 126 140 168 230 91 63 64 63 78 89 111 107 103 100 101 9 354 357 26 76 101 162 155 139 134 135 132 130 134 123 142 165 168
227 214 222 221 203 202 204 201 197 190 189 196 197 197 199 195 201 199 194 194 193 192 188 184 182 185 183 179 175 179 179 176 175 168 163 169 178 183 174 176 164 159 166 166 168 174 182 166 176 141 122 126 147 164 193 197 79 40 40 59 65 105 111 120 122 123 113 32 349 0 15 40 104 181 168 162 144 140 148 160 153 146 144 150 154
217 233 251 228 211 204 196 206 196 192 193 198 198 200 195 191 198 195 193 189 188 188 187 182 182 181 180 177 172 174 175 171 166 165 168 164 163 178 174 167 153 158 154 159 162 172 159 134 119 118 133 141 155 196 186 149 63 42 341 5 57 94 101 110 118 117 107 47 315 22 7 11 13 215 206 188 160 145 168 162 169 169 143 183 129
336 255 242 230 215 207 199 190 189 193 194 194 199 192 182 199 199 194 189 190 185 187 188 181 176 176 175 178 165 173 172 165 168 169 167 166 167 173 175 163 161 169 162 159 161 152 143 134 134 139 155 150 175 188 203 170 166 288 301 302 280 108 111 107 108 100 63 357 338 20 15 354 2 339 238 195 185 175 194 196 193 183 170 158 178
309 293 320 306 306 255 206 178 192 192 201 195 187 177 193 199 199 192 189 198 187 184 193 185 178 173 174 171 170 184 175 168 171 172 174 173 174 175 174 170 172 172 174 154 163 159 150 149 149 157 153 157 175 252 269 289 215 194 242 239 222 133 123 129 119 113 32 348 343 7 353 350 340 325 268 224 190 192 200 195 206 187 178 176 199
26 355 337 290 256 269 301 218 195 187 199 187 183 189 192 188 193 187 195 193 186 192 194 193 172 174 175 173 186 184 174 175 178 178 180 176 182 177 172 176 173 175 170 165 159 161 157 154 154 153 155 166 182 236 239 226 226 191 179 208 171 148 151 147 143 142 266 341 340 340 344 337 326 313 300 247 203 198 204 202 206 214 165 200 203
16 353 335 342 313 246 204 227 217 199 189 179 193 193 183 188 184 189 197 185 190 195 191 180 181 171 173 176 184 186 177 177 180 185 156 188 175 176 174 183 176 174 163 179 167 162 162 163 163 162 165 172 182 234 220 212 207 188 172 181 172 169 160 151 157 172 185 252 325 329 341 331 319 310 290 264 224 206 212 216 216 215 195 212 214
355 333 340 338 334 298 211 206 209 207 176 172 200 183 190 187 193 194 192 176 193 189 175 184 188 173 176 183 187 187 181 178 178 168 173 183 176 176 181 181 182 174 176 174 176 160 163 159 161 164 168 177 181 220 183 196 201 188 183 167 182 184 175 165 173 179 187 204 257 302 339 336 329 325 314 284 251 221 222 224 211 209 213 216 207
349 356 350 341 325 350 328 265 241 208 163 188 187 198 175 195 197 191 178 190 186 171 181 183 183 186 184 181 184 188 176 173 175 175 182 175 175 176 188 173 184 188 183 174 164 170 161 174 174 173 176 173 197 195 188 186 194 198 188 167 192 179 185 184 172 176 182 208 217 242 299 348 346 346 351 319 247 244 233 222 213 216 226 218 217
360 355 344 328 340 1 341 297 230 198 182 200 181 185 189 194 176 170 189 191 169 178 182 180 187 192 185 183 186 188 177 179 177 179 181 173 177 181 180 179 194 182 181 170 169 162 167 170 166 166 168 165 188 194 215 188 196 207 186 188 178 182 187 186 180 190 197 200 212 210 262 339 5 10 1 2 13 343 255 239 213 295 263 304 274
348 343 340 357 6 351 4 5 51 79 287 273 223 194 159 156 163 178 176 169 176 171 179 190 193 193 187 187 189 189 184 178 185 181 179 177 177 178 182 192 187 180 178 165 158 141 128 130 148 123 146 151 173 207 209 224 192 216 203 205 179 199 195 175 191 189 195 199 201 196 175 62 5 9 12 12 9 15 11 248 49 2 347 331 307
349 347 3 17 1 357 358 18 19 56 68 49 39 30 34 73 128 156 153 158 176 176 190 194 193 192 191 193 190 190 187 184 173 178 172 171 177 183 183 187 182 176 163 148 159 155 149 146 159 136 171 175 197 204 188 217 242 222 214 204 190 201 188 194 189 196 192 193 193 184 182 135 56 31 4 10 15 14 22 35 43 28 359 352 327
11 10 12 1 15 13 8 24 19 33 39 40 42 48 59 61 58 100 157 170 169 178 182 182 187 196 189 198 195 191 191 181 177 171 174 169 171 181 186 189 169 162 165 167 157 159 154 168 150 165 161 212 214 202 201 210 205 217 216 196 201 210 199 202 199 199 198 198 183 191 182 174 185 96 42 358 7 14 20 31 36 25 22 2 351
21 12 12 15 25 20 16 29 26 30 32 33 45 50 50 48 45 33 32 29 43 50 81 159 163 168 181 188 195 191 186 180 175 170 170 176 177 182 190 167 167 159 164 161 153 166 169 164 177 164 169 214 199 238 241 226 220 222 226 211 210 194 201 210 208 209 212 186 192 187 189 186 184 180 181 113 45 348 32 32 36 43 27 11 354
13 23 22 24 31 22 23 28 27 27 28 29 31 38 41 47 46 49 52 50 44 38 32 25 27 28 23 163 184 179 173 164 170 175 171 176 178 180 176 169 160 163 163 168 176 174 167 172 180 189 179 183 191 208 215 221 231 236 230 223 220 199 203 206 210 211 194 192 194 196 191 195 196 193 183 175 161 67 15 40 47 46 34 9 358
13 20 25 35 37 28 28 26 25 29 36 37 39 40 37 40 39 41 47 50 44 41 37 41 36 29 29 24 16 21 63 134 160 167 171 174 173 166 153 157 160 160 163 169 181 158 166 167 183 198 185 166 192 196 210 210 220 243 253 243 242 228 224 220 222 212 190 198 203 199 198 188 188 199 194 186 185 185 141 5 40 38 24 5 356
15 17 25 31 37 34 33 29 24 18 27 36 36 42 41 43 47 42 44 41 40 39 35 42 35 39 34 30 40 42 30 25 17 10 155 161 160 157 163 171 166 162 161 164 150 153 157 183 183 191 195 204 189 197 189 174 196 238 261 277 288 248 251 250 256 237 224 212 206 209 179 191 193 195 194 195 196 185 188 195 114 48 331 15 332
21 20 27 30 31 33 35 36 26 17 24 31 32 35 44 42 37 29 37 25 33 40 38 42 34 37 27 32 34 33 39 43 37 31 25 14 6 58 167 159 159 147 155 158 169 176 187 184 201 181 181 180 93 152 125 127 63 36 336 322 315 312 283 272 263 237 234 231 236 216 206 211 199 195 197 203 193 200 200 203 201 206 201 271 18
27 25 32 30 31 30 39 35 21 26 32 27 29 33 30 27 38 41 43 24 33 39 44 37 45 39 34 32 31 35 37 35 28 31 33 40 40 27 24 13 15 171 174 193 192 194 190 185 162 156 169 175 209 142 155 127 126 135 348 323 317 310 296 298 265 254 247 250 240 219 236 217 228 207 215 202 201 206 209 209 217 211 208 196 226
23 27 33 30 32 33 40 36 29 31 32 29 32 43 31 48 72 30 43 33 23 32 38 29 42 46 43 38 33 26 29 38 36 33 33 35 37 32 27 26 17 345 341 14 109 116 125 149 142 170 217 186 205 177 172 124 226 197 196 289 320 304 284 297 276 261 252 255 230 228 228 219 223 224 238 210 221 215 217 219 217 220 222 217 224
33 33 28 35 32 33 34 39 37 37 31 28 33 34 32 39 51 34 31 28 37 17 34 27 46 54 53 50 41 36 33 27 23 30 38 32 34 37 34 36 33 15 351 345 5 256 203 185 178 191 199 255 199 167 179 195 182 124 112 73 284 297 312 288 265 249 250 244 238 234 228 230 228 221 212 210 222 222 227 222 222 221 223 230 228
32 30 26 30 32 33 32 37 39 38 36 30 36 30 47 54 53 53 45 59 32 7 19 18 13 22 27 26 36 37 37 34 31 31 32 38 38 35 26 32 29 47 26 328 332 293 262 232 215 228 183 187 214 225 201 205 139 137 262 213 231 154 300 260 243 254 207 227 225 234 232 231 235 241 233 224 223 225 228 221 227 223 221 223 224
32 30 25 27 32 31 31 38 41 41 41 36 36 39 40 38 33 40 40 31 25 23 21 14 12 17 19 14 8 9 19 33 30 33 38 29 40 44 39 29 25 23 29 318 273 258 261 261 260 257 221 220 230 231 217 209 221 223 174 97 343 278 230 253 355 277 224 229 238 235 235 235 233 231 228 237 235 233 227 231 236 239 231 223 226
36 23 25 31 32 31 31 34 42 41 39 38 39 50 53 53 47 44 36 32 32 19 21 5 5 12 12 13 22 24 18 13 14 14 19 24 21 31 40 37 27 12 5 315 304 310 264 231 216 217 237 251 250 229 249 225 229 238 239 217 150 183 232 271 63 281 328 238 259 250 238 235 231 231 235 240 235 237 231 233 229 237 231 228 228
29 19 32 35 35 35 32 34 40 44 42 44 43 50 54 53 60 64 64 56 54 20 1 11 12 360 19 23 21 26 26 27 22 24 17 14 10 11 19 34 36 30 14 360 328 294 289 272 281 232 231 238 243 254 233 239 241 253 257 258 259 199 157 123 249 347 315 313 243 236 250 252 244 242 238 234 233 233 236 229 231 230 232 228 225
19 30 39 35 34 31 32 31 34 39 41 49 53 52 64 59 62 62 57 52 49 29 15 13 20 17 26 15 18 21 25 30 27 22 20 18 13 7 4 9 19 32 26 17 336 325 326 315 301 269 279 250 230 233 246 232 228 236 220 246 253 236 186 183 174 217 259 284 300 287 271 249 251 244 239 236 225 221 224 226 229 229 230 227 224
27 33 34 34 35 34 36 36 38 34 33 46 60 58 64 67 67 63 62 48 48 38 27 34 31 21 32 16 18 14 22 26 26 22 18 15 15 9 6 5 4 5 23 13 357 350 335 324 321 313 274 264 239 240 244 248 231 245 252 251 248 252 253 238 222 185 246 274 273 231 258 280 236 250 244 235 237 227 220 219 217 223 225 226 215
28 34 33 33 39 41 41 43 38 34 28 40 57 63 65 68 66 59 61 50 41 41 48 40 34 26 35 22 14 16 14 21 19 21 18 12 12 11 14 12 6 358 2 6 3 0 352 341 319 312 310 298 286 262 244 251 246 252 238 257 254 268 267 274 259 258 261 208 258 265 229 228 239 243 232 228 229 227 226 222 219 223 226 225 215
38 42 38 33 32 39 40 50 39 35 29 36 49 57 59 59 64 61 60 54 43 47 45 39 32 35 35 23 19 10 13 18 18 19 23 12 8 13 13 10 16 14 10 5 356 351 346 342 326 326 316 299 294 292 284 269 266 264 255 240 248 240 245 244 243 234 239 258 268 262 259 226 229 257 254 237 234 226 219 216 220 223 223 223 216